Hourly Data Report for October 05, 2017

All times are specified in Local Standard Time (LST). Add 1 hour to adjust for Daylight Saving Time where and when it is observed.

DELINE CS
NORTHWEST TERRITORIES

65°12'31.090" N
123°26'00.070" W
212.80 m
2201022
71503
XDE

Download Data

Hourly Data (October 2017)
Hourly Data Report for October 5, 2017
Temp Definition
°C
Dew Point Temp Definition
°C
Rel Hum Definition
%
Wind Dir Definition
10's deg

Wind Spd Definition
km/h
Visibility Definition
km
Stn Press Definition
kPa
Hmdx Definition


Wind Chill Definition


Weather Definition


TIME
00:00 3.2 1.7 90 10 24   98.71     LegendNANA
01:00 3.1 1.7 91 10 27   98.58     LegendNANA
02:00 3.2 1.4 88 11 25   98.51     LegendNANA
03:00 3.1 1.4 88 10 25   98.37     LegendNANA
04:00 3.3 1.4 88 10 26   98.24     LegendNANA
05:00 3.3 1.4 88 10 26   98.15     LegendNANA
06:00 3.8 1.8 87 11 23   98.02     LegendNANA
07:00 4.0 1.3 82 12 24   97.90     LegendNANA
08:00 3.9 1.3 83 12 25   97.79     LegendNANA
09:00 3.9 1.5 84 13 23   97.71     LegendNANA
10:00 4.1 1.7 84 13 23   97.59     LegendNANA
11:00 4.5 1.8 83 13 20   97.49     LegendNANA
12:00 4.9 2.2 83 12 19   97.38     LegendNANA
13:00 5.2 2.2 81 14 11   97.40     LegendNANA
14:00 7.2 2.6 72 13 12   97.33     LegendNANA
15:00 6.8 2.5 74 19 5   97.33     LegendNANA
16:00 7.0 2.7 74 13 4   97.26     LegendNANA
17:00 6.4 3.1 79 21 9   97.24     LegendNANA
18:00 4.7 2.7 87 14 5   97.17     LegendNANA
19:00 1.2 0.0 92 6 7   97.14     LegendNANA
20:00 -0.7 -1.6 94 3 8   97.11   -4 LegendNANA
21:00 -0.7 -1.1 97 4 7   97.03   -3 LegendNANA
22:00 -0.9 -1.4 96 4 9   96.94   -4 LegendNANA
23:00 -1.0 -1.4 97 3 11   96.92   -5 LegendNANA

Notes on Data Quality.

Legend

  • E = Estimated
  • M = Missing
  • NA = Not Available
  • ‡ = Partner data that is not subject to review by the National Climate Archives
Date modified: